Station Historical Data
Daily Summary for November 16, 2017 Units:  English    Metric   Both
Next Day »
Daily Weekly Monthly Yearly Custom
  High: Low: Average:
Temperature: 50.4 °F 45.1 °F 48.1 °F
Dew Point: 47.6 °F 42.6 °F 45.5 °F
Humidity: 91% 89% 91%
Wind Speed: 24.0mph 0.0mph 4.7mph
Wind Gust: 28.0mph - -
Wind- - South
Pressure: 29.97 in 29.84 in -
Precipitation: 0.01 in    
Historical Graphs
 
 
Tabular Data for November 16, 2017
Time Temperature Dew Point Pressure Wind Wind Speed Wind Gust Humidity Rainfall Rate (Hourly) solar Conditions
00:03 50.0 °F 46.9 °F 29.91 in SSE 24.0 mph 25.0 mph 89% 0.08 in 0.00 W/m2
00:08 50.0 °F 46.9 °F 29.91 in South 9.0 mph 20.0 mph 89% 0.13 in 0.00 W/m2
00:14 50.0 °F 46.9 °F 29.91 in SSE 13.0 mph 23.0 mph 89% 0.10 in 0.00 W/m2
00:19 50.1 °F 47.0 °F 29.91 in South 9.0 mph 23.0 mph 89% 0.14 in 0.00 W/m2
00:24 50.1 °F 47.0 °F 29.90 in South 9.0 mph 22.0 mph 89% 0.19 in 0.00 W/m2
00:29 50.1 °F 47.0 °F 29.90 in SSE 14.0 mph 23.0 mph 89% 0.31 in 0.00 W/m2
00:34 50.1 °F 47.0 °F 29.91 in South 13.0 mph 20.0 mph 89% 0.30 in 0.00 W/m2
00:39 50.1 °F 47.0 °F 29.89 in SE 4.0 mph 22.0 mph 89% 0.25 in 0.00 W/m2
00:44 50.2 °F 47.1 °F 29.90 in SW 10.0 mph 21.0 mph 89% 0.16 in 0.00 W/m2
00:49 50.2 °F 47.1 °F 29.90 in South 9.0 mph 16.0 mph 89% 0.58 in 0.00 W/m2
00:54 50.1 °F 47.0 °F 29.90 in South 15.0 mph 17.0 mph 89% 0.33 in 0.00 W/m2
00:59 50.1 °F 47.0 °F 29.90 in SSE 15.0 mph 21.0 mph 89% 0.41 in 0.00 W/m2
01:04 50.1 °F 47.0 °F 29.90 in South 9.0 mph 17.0 mph 89% 0.49 in 0.00 W/m2
01:09 50.1 °F 47.0 °F 29.89 in SSE 17.0 mph 22.0 mph 89% 0.30 in 0.00 W/m2
01:14 50.1 °F 47.0 °F 29.90 in South 10.0 mph 20.0 mph 89% 0.45 in 0.00 W/m2
01:19 50.1 °F 47.0 °F 29.91 in Calm   19.0 mph 89% 0.57 in 0.00 W/m2
01:24 50.1 °F 47.0 °F 29.90 in SSW 9.0 mph 15.0 mph 89% 0.58 in 0.00 W/m2
01:29 50.1 °F 47.0 °F 29.92 in South 16.0 mph 17.0 mph 89% 0.30 in 0.00 W/m2
01:34 50.1 °F 47.0 °F 29.91 in South 14.0 mph 21.0 mph 89% 0.24 in 0.00 W/m2
01:39 50.1 °F 47.0 °F 29.90 in SSE 15.0 mph 25.0 mph 89% 0.22 in 0.00 W/m2
01:44 50.2 °F 47.4 °F 29.90 in ESE 16.0 mph 24.0 mph 90% 0.27 in 0.00 W/m2
01:49 50.2 °F 47.4 °F 29.90 in SSW 12.0 mph 23.0 mph 90% 0.19 in 0.00 W/m2
01:54 50.2 °F 47.4 °F 29.89 in South 15.0 mph 24.0 mph 90% 0.16 in 0.00 W/m2
01:59 50.2 °F 47.4 °F 29.89 in SSW 20.0 mph 25.0 mph 90% 0.13 in 0.00 W/m2
02:04 50.2 °F 47.4 °F 29.89 in South 10.0 mph 22.0 mph 90% 0.17 in 0.00 W/m2
02:09 50.2 °F 47.4 °F 29.88 in SSE 7.0 mph 26.0 mph 90% 0.20 in 0.00 W/m2
02:14 50.2 °F 47.4 °F 29.88 in SSE 7.0 mph 23.0 mph 90% 0.20 in 0.00 W/m2
02:19 50.2 °F 47.4 °F 29.88 in SSE 14.0 mph 27.0 mph 90% 0.13 in 0.00 W/m2
02:24 50.2 °F 47.4 °F 29.89 in SSW 12.0 mph 22.0 mph 90% 0.19 in 0.00 W/m2
02:29 50.2 °F 47.4 °F 29.89 in SSE 12.0 mph 21.0 mph 90% 0.21 in 0.00 W/m2
02:34 50.2 °F 47.4 °F 29.88 in SE 18.0 mph 20.0 mph 90% 0.24 in 0.00 W/m2
02:39 50.2 °F 47.4 °F 29.88 in South 7.0 mph 22.0 mph 90% 0.15 in 0.00 W/m2
02:44 50.2 °F 47.4 °F 29.88 in South 12.0 mph 27.0 mph 90% 0.12 in 0.00 W/m2
02:49 50.2 °F 47.4 °F 29.88 in SSE 13.0 mph 14.0 mph 90% 0.10 in 0.00 W/m2
02:54 50.2 °F 47.4 °F 29.87 in SSE 4.0 mph 16.0 mph 90% 0.24 in 0.00 W/m2
02:59 50.2 °F 47.4 °F 29.87 in South 11.0 mph 26.0 mph 90% 0.14 in 0.00 W/m2
03:04 50.3 °F 47.5 °F 29.87 in SSW 7.0 mph 20.0 mph 90% 0.17 in 0.00 W/m2
03:05 50.3 °F 47.5 °F 29.87 in SSW 2.0 mph 20.0 mph 90% 0.17 in 0.00 W/m2
03:10 50.3 °F 47.5 °F 29.87 in SSE 12.0 mph 19.0 mph 90% 0.25 in 0.00 W/m2
03:15 50.3 °F 47.5 °F 29.87 in South 6.0 mph 19.0 mph 90% 0.23 in 0.00 W/m2
03:20 50.3 °F 47.5 °F 29.87 in South 9.0 mph 17.0 mph 90% 0.27 in 0.00 W/m2
03:25 50.4 °F 47.6 °F 29.86 in South 7.0 mph 20.0 mph 90% 0.24 in 0.00 W/m2
03:30 50.4 °F 47.6 °F 29.86 in South 3.0 mph 18.0 mph 90% 0.23 in 0.00 W/m2
03:35 50.4 °F 47.6 °F 29.87 in SSW 3.0 mph 15.0 mph 90% 0.24 in 0.00 W/m2
03:40 50.4 °F 47.6 °F 29.87 in SSE 11.0 mph 15.0 mph 90% 0.27 in 0.00 W/m2
03:45 50.4 °F 47.6 °F 29.86 in South 16.0 mph 16.0 mph 90% 0.26 in 0.00 W/m2
03:50 50.4 °F 47.6 °F 29.86 in South 15.0 mph 16.0 mph 90% 0.34 in 0.00 W/m2
03:55 50.4 °F 47.6 °F 29.86 in South 10.0 mph 15.0 mph 90% 0.34 in 0.00 W/m2
04:00 50.4 °F 47.6 °F 29.86 in South 13.0 mph 19.0 mph 90% 0.22 in 0.00 W/m2
04:05 50.4 °F 47.6 °F 29.86 in South 8.0 mph 14.0 mph 90% 0.16 in 0.00 W/m2
04:10 50.4 °F 47.6 °F 29.86 in SSE 7.0 mph 15.0 mph 90% 0.15 in 0.00 W/m2
04:15 50.4 °F 47.6 °F 29.85 in SSE 6.0 mph 15.0 mph 90% 0.17 in 0.00 W/m2
04:20 50.4 °F 47.6 °F 29.84 in SE 8.0 mph 15.0 mph 90% 0.09 in 0.00 W/m2
04:25 50.4 °F 47.6 °F 29.85 in South 13.0 mph 23.0 mph 90% 0.05 in 0.00 W/m2
04:30 50.4 °F 47.6 °F 29.85 in South 5.0 mph 19.0 mph 90% 0.43 in 0.00 W/m2
04:35 50.4 °F 47.6 °F 29.85 in SSE 11.0 mph 28.0 mph 90% 0.16 in 0.00 W/m2
04:40 50.4 °F 47.6 °F 29.86 in SSW 4.0 mph 23.0 mph 90% 0.15 in 0.00 W/m2
04:45 50.4 °F 47.6 °F 29.86 in South 12.0 mph 19.0 mph 90% 0.96 in 0.00 W/m2
04:50 50.3 °F 47.5 °F 29.86 in SSE 9.0 mph 19.0 mph 90% 0.35 in 0.00 W/m2
04:55 50.3 °F 47.5 °F 29.86 in South 8.0 mph 19.0 mph 90% 0.29 in 0.00 W/m2
05:00 50.3 °F 47.5 °F 29.86 in SSE 8.0 mph 18.0 mph 90% 0.28 in 0.00 W/m2
05:05 50.3 °F 47.5 °F 29.86 in South 17.0 mph 27.0 mph 90% 0.10 in 0.00 W/m2
05:10 50.2 °F 47.4 °F 29.86 in SSW 7.0 mph 24.0 mph 90% 0.07 in 0.00 W/m2
05:15 50.1 °F 47.3 °F 29.86 in SSW 9.0 mph 19.0 mph 90% 0.46 in 0.00 W/m2
05:20 50.1 °F 47.3 °F 29.87 in SSE 9.0 mph 25.0 mph 90% 0.18 in 0.00 W/m2
05:25 50.1 °F 47.3 °F 29.87 in SSW 15.0 mph 20.0 mph 90% 0.35 in 0.00 W/m2
05:30 50.0 °F 47.2 °F 29.87 in South 10.0 mph 17.0 mph 90% 0.43 in 0.00 W/m2
05:35 50.0 °F 47.2 °F 29.86 in SSW 12.0 mph 20.0 mph 90% 0.64 in 0.00 W/m2
05:40 50.0 °F 47.2 °F 29.86 in SSW 7.0 mph 15.0 mph 90% 0.25 in 0.00 W/m2
05:45 50.0 °F 47.2 °F 29.86 in SSW 4.0 mph 15.0 mph 90% 0.42 in 0.00 W/m2
05:50 49.9 °F 47.1 °F 29.85 in SSE 11.0 mph 17.0 mph 90% 0.42 in 0.00 W/m2
05:55 49.9 °F 47.1 °F 29.86 in SSE 4.0 mph 19.0 mph 90% 0.15 in 0.00 W/m2
06:00 49.9 °F 47.1 °F 29.87 in South 6.0 mph 24.0 mph 90% 0.43 in 0.00 W/m2
06:05 49.9 °F 47.1 °F 29.86 in South 13.0 mph 22.0 mph 90% 0.67 in 0.00 W/m2
06:10 49.9 °F 47.1 °F 29.86 in SSW 9.0 mph 18.0 mph 90% 0.73 in 0.00 W/m2
06:15 49.9 °F 47.1 °F 29.87 in SSW 4.0 mph 13.0 mph 90% 0.27 in 0.00 W/m2
06:20 49.9 °F 47.1 °F 29.87 in SSE 10.0 mph 15.0 mph 90% 0.48 in 0.00 W/m2
06:25 49.9 °F 47.1 °F 29.86 in SSW 5.0 mph 19.0 mph 90% 0.33 in 0.00 W/m2
06:30 49.9 °F 47.1 °F 29.87 in SSW 14.0 mph 14.0 mph 90% 0.35 in 0.00 W/m2
06:35 49.9 °F 47.1 °F 29.87 in South 7.0 mph 20.0 mph 90% 0.21 in 0.00 W/m2
06:40 49.9 °F 47.1 °F 29.86 in SSE 14.0 mph 17.0 mph 90% 0.37 in 0.00 W/m2
06:45 49.9 °F 47.1 °F 29.86 in South 6.0 mph 16.0 mph 90% 0.34 in 0.00 W/m2
06:50 49.9 °F 47.1 °F 29.87 in South 11.0 mph 18.0 mph 90% 0.18 in 0.00 W/m2
06:55 49.9 °F 47.1 °F 29.88 in SSW 6.0 mph 17.0 mph 90% 0.55 in 0.00 W/m2
07:00 49.8 °F 47.0 °F 29.88 in South 2.0 mph 24.0 mph 90% 0.71 in 0.00 W/m2
07:10 49.7 °F 46.9 °F 29.88 in South 5.0 mph 15.0 mph 90% 0.19 in 0.00 W/m2
07:15 49.7 °F 46.9 °F 29.87 in SSE 9.0 mph 17.0 mph 90% 0.15 in 0.00 W/m2
07:20 49.7 °F 46.9 °F 29.87 in SSE 13.0 mph 13.0 mph 90% 0.09 in 5.00 W/m2
07:25 49.7 °F 46.9 °F 29.87 in South 10.0 mph 16.0 mph 90% 0.14 in 0.00 W/m2
07:30 49.7 °F 46.9 °F 29.88 in South 7.0 mph 18.0 mph 90% 0.98 in 7.00 W/m2
07:35 49.6 °F 46.8 °F 29.88 in SSW 10.0 mph 15.0 mph 90% 0.31 in 9.00 W/m2
07:40 49.6 °F 46.8 °F 29.90 in SW 12.0 mph 15.0 mph 90% 1.02 in 5.00 W/m2
07:45 49.6 °F 46.8 °F 29.89 in SSW 12.0 mph 14.0 mph 90% 0.34 in 11.00 W/m2
07:50 49.6 °F 46.8 °F 29.89 in Calm   16.0 mph 90% 0.26 in 7.00 W/m2
07:55 49.5 °F 46.7 °F 29.90 in SSW 5.0 mph 13.0 mph 90% 0.49 in 11.00 W/m2
08:00 49.5 °F 46.7 °F 29.88 in South 7.0 mph 16.0 mph 90% 0.30 in 19.00 W/m2
08:05 49.5 °F 46.7 °F 29.90 in SW 2.0 mph 3.0 mph 90% 0.17 in 14.00 W/m2
08:10 49.5 °F 46.7 °F 29.90 in Calm     90% 0.14 in 18.00 W/m2
08:15 49.5 °F 46.7 °F 29.89 in SSW 2.0 mph 3.0 mph 90% 0.23 in 18.00 W/m2
08:20 49.4 °F 46.6 °F 29.91 in Calm     90% 0.25 in 14.00 W/m2
08:26 49.4 °F 46.6 °F 29.91 in SSW 7.0 mph 8.0 mph 90% 0.42 in 12.00 W/m2
08:31 49.5 °F 46.7 °F 29.91 in South 6.0 mph 11.0 mph 90% 0.48 in 26.00 W/m2
08:36 49.4 °F 46.6 °F 29.91 in SSW 5.0 mph 6.0 mph 90% 0.23 in 28.00 W/m2
08:41 49.5 °F 46.7 °F 29.91 in South 6.0 mph 7.0 mph 90% 0.12 in 40.00 W/m2
08:46 49.5 °F 46.7 °F 29.90 in South 7.0 mph 7.0 mph 90% 0.14 in 35.00 W/m2
08:51 49.5 °F 46.7 °F 29.90 in SSW 11.0 mph 12.0 mph 90% 0.10 in 30.00 W/m2
08:56 49.5 °F 46.7 °F 29.91 in SSW 8.0 mph 9.0 mph 90% 0.06 in 28.00 W/m2
09:01 49.5 °F 46.7 °F 29.91 in South 11.0 mph 12.0 mph 90% 0.21 in 40.00 W/m2
09:06 49.5 °F 46.7 °F 29.91 in SW 6.0 mph 13.0 mph 90% 0.17 in 32.00 W/m2
09:11 49.5 °F 46.7 °F 29.91 in SW 12.0 mph 18.0 mph 90% 0.07 in 40.00 W/m2
09:16 49.5 °F 46.7 °F 29.91 in SSE 8.0 mph 8.0 mph 90% 0.07 in 37.00 W/m2
09:21 49.5 °F 46.7 °F 29.90 in South 6.0 mph 6.0 mph 90% 0.07 in 33.00 W/m2
09:26 49.5 °F 46.7 °F 29.91 in South 3.0 mph 12.0 mph 90% 0.07 in 19.00 W/m2
09:31 49.4 °F 46.6 °F 29.90 in Calm     90% 0.08 in 16.00 W/m2
09:36 49.4 °F 46.6 °F 29.91 in South 12.0 mph 17.0 mph 90% 0.21 in 14.00 W/m2
09:41 49.4 °F 46.6 °F 29.91 in South 7.0 mph 13.0 mph 90% 0.44 in 30.00 W/m2
09:46 49.4 °F 46.6 °F 29.92 in South 9.0 mph 13.0 mph 90% 0.22 in 30.00 W/m2
09:51 49.4 °F 46.6 °F 29.92 in South 5.0 mph 9.0 mph 90% 0.21 in 32.00 W/m2
09:56 49.3 °F 46.5 °F 29.91 in South 4.0 mph 12.0 mph 90% 0.08 in 47.00 W/m2
10:01 49.3 °F 46.5 °F 29.91 in Calm   7.0 mph 90% 0.22 in 51.00 W/m2
10:06 49.4 °F 46.6 °F 29.92 in SSW 7.0 mph 8.0 mph 90% 0.13 in 32.00 W/m2
10:11 49.3 °F 46.8 °F 29.92 in SSW 5.0 mph 9.0 mph 91% 0.19 in 62.00 W/m2
10:16 49.4 °F 46.9 °F 29.92 in SSW 3.0 mph 14.0 mph 91% 0.20 in 44.00 W/m2
10:21 49.4 °F 46.9 °F 29.92 in SSE 5.0 mph 9.0 mph 91% 0.10 in 49.00 W/m2
10:26 49.4 °F 46.9 °F 29.91 in Calm     91% 0.08 in 54.00 W/m2
10:31 49.5 °F 47.0 °F 29.91 in SSW 11.0 mph 11.0 mph 91% 0.14 in 39.00 W/m2
10:36 49.5 °F 47.0 °F 29.92 in SSW 7.0 mph 12.0 mph 91% 0.10 in 19.00 W/m2
10:41 49.5 °F 47.0 °F 29.92 in South 14.0 mph 14.0 mph 91% 0.50 in 21.00 W/m2
10:46 49.5 °F 47.0 °F 29.92 in SW 11.0 mph 11.0 mph 91% 0.38 in 25.00 W/m2
10:51 49.5 °F 47.0 °F 29.93 in SSW 7.0 mph 8.0 mph 91% 0.26 in 26.00 W/m2
10:56 49.5 °F 47.0 °F 29.92 in WSW 4.0 mph 9.0 mph 91% 0.20 in 40.00 W/m2
11:01 49.5 °F 47.0 °F 29.91 in SSW 10.0 mph 16.0 mph 91% 0.12 in 98.00 W/m2
11:11 49.5 °F 47.0 °F 29.92 in SW 7.0 mph 13.0 mph 91% 0.07 in 49.00 W/m2
11:16 49.5 °F 47.0 °F 29.91 in South 12.0 mph 17.0 mph 91% 0.05 in 53.00 W/m2
11:21 49.4 °F 46.9 °F 29.91 in South 5.0 mph 11.0 mph 91% 0.12 in 46.00 W/m2
11:26 49.4 °F 46.9 °F 29.91 in Calm   2.0 mph 91% 0.12 in 47.00 W/m2
11:31 49.5 °F 47.0 °F 29.90 in Calm     91% 0.10 in 37.00 W/m2
11:36 49.4 °F 46.9 °F 29.90 in SSW 1.0 mph 9.0 mph 91% 0.18 in 65.00 W/m2
11:41 49.5 °F 47.0 °F 29.90 in Calm     91% 0.18 in 58.00 W/m2
11:46 49.5 °F 47.0 °F 29.89 in SW 2.0 mph 6.0 mph 91% 0.15 in 65.00 W/m2
11:51 49.5 °F 47.0 °F 29.89 in SSW 8.0 mph 12.0 mph 91% 0.12 in 51.00 W/m2
11:56 49.6 °F 47.1 °F 29.89 in WSW 9.0 mph 11.0 mph 91% 0.12 in 69.00 W/m2
12:06 49.6 °F 47.1 °F 29.89 in SSW 7.0 mph 8.0 mph 91% 0.30 in 79.00 W/m2
12:11 49.6 °F 47.1 °F 29.89 in South 8.0 mph 12.0 mph 91% 0.20 in 54.00 W/m2
12:16 49.6 °F 47.1 °F 29.89 in South 10.0 mph 10.0 mph 91% 0.34 in 53.00 W/m2
12:22 49.7 °F 47.2 °F 29.88 in SW 6.0 mph 9.0 mph 91% 0.12 in 46.00 W/m2
12:27 49.7 °F 47.2 °F 29.88 in Calm   1.0 mph 91% 0.22 in 33.00 W/m2
12:32 49.7 °F 47.2 °F 29.88 in SW 8.0 mph 9.0 mph 91% 0.39 in 65.00 W/m2
12:37 49.7 °F 47.2 °F 29.88 in SW 6.0 mph 13.0 mph 91% 0.24 in 44.00 W/m2
12:42 49.8 °F 47.3 °F 29.88 in Calm   15.0 mph 91% 0.17 in 35.00 W/m2
12:47 49.8 °F 47.3 °F 29.88 in SW 4.0 mph 10.0 mph 91% 0.27 in 37.00 W/m2
12:52 49.7 °F 47.2 °F 29.88 in South 10.0 mph 14.0 mph 91% 0.21 in 49.00 W/m2
12:57 49.7 °F 47.2 °F 29.88 in West 3.0 mph 10.0 mph 91% 0.17 in 46.00 W/m2
13:02 49.6 °F 47.1 °F 29.88 in SW 9.0 mph 13.0 mph 91% 0.19 in 49.00 W/m2
13:07 49.5 °F 47.0 °F 29.87 in SW 2.0 mph 8.0 mph 91% 0.15 in 39.00 W/m2
13:12 49.5 °F 47.0 °F 29.88 in SW 8.0 mph 16.0 mph 91% 0.10 in 30.00 W/m2
13:17 49.4 °F 46.9 °F 29.88 in Calm   16.0 mph 91% 0.09 in 30.00 W/m2
13:22 49.3 °F 46.8 °F 29.88 in WSW 5.0 mph 11.0 mph 91% 0.23 in 39.00 W/m2
13:27 49.2 °F 46.7 °F 29.88 in West 7.0 mph 7.0 mph 91% 0.18 in 40.00 W/m2
13:32 49.0 °F 46.5 °F 29.88 in West 7.0 mph 10.0 mph 91% 0.29 in 44.00 W/m2
13:37 48.8 °F 46.3 °F 29.87 in Calm     91% 0.13 in 33.00 W/m2
13:42 48.8 °F 46.3 °F 29.88 in Calm   1.0 mph 91% 0.13 in 19.00 W/m2
13:47 48.7 °F 46.2 °F 29.88 in Calm   10.0 mph 91% 0.40 in 18.00 W/m2
13:52 48.5 °F 46.0 °F 29.89 in WSW 2.0 mph 12.0 mph 91% 0.33 in 12.00 W/m2
13:57 48.1 °F 45.3 °F 29.89 in Calm   7.0 mph 90% 0.29 in 21.00 W/m2
14:02 47.8 °F 45.0 °F 29.89 in Calm   8.0 mph 90% 0.19 in 19.00 W/m2
14:07 47.4 °F 44.6 °F 29.88 in Calm     90% 0.25 in 28.00 W/m2
14:12 47.3 °F 44.5 °F 29.88 in Calm     90% 0.09 in 28.00 W/m2
14:17 47.0 °F 44.2 °F 29.88 in Calm     90% 0.06 in 26.00 W/m2
14:22 47.0 °F 44.2 °F 29.88 in Calm     90% 0.09 in 23.00 W/m2
14:27 46.9 °F 44.4 °F 29.88 in Calm     91% 0.09 in 19.00 W/m2
14:32 46.8 °F 44.0 °F 29.89 in Calm     90% 0.15 in 23.00 W/m2
14:37 46.8 °F 44.0 °F 29.88 in Calm     90% 0.09 in 19.00 W/m2
14:42 46.7 °F 44.2 °F 29.88 in Calm     91% 0.06 in 14.00 W/m2
14:47 46.7 °F 44.2 °F 29.88 in Calm     91% 0.06 in 25.00 W/m2
14:52 46.7 °F 44.2 °F 29.89 in WSW 11.0 mph 11.0 mph 91% 0.06 in 21.00 W/m2
14:57 46.7 °F 44.2 °F 29.89 in Calm   1.0 mph 91% 0.13 in 28.00 W/m2
15:02 46.7 °F 44.2 °F 29.89 in Calm   1.0 mph 91% 0.14 in 30.00 W/m2
15:07 46.6 °F 44.1 °F 29.88 in Calm     91% 0.09 in 32.00 W/m2
15:12 46.6 °F 44.1 °F 29.88 in Calm     91% 0.12 in 21.00 W/m2
15:18 46.6 °F 44.1 °F 29.88 in Calm     91% 0.10 in 18.00 W/m2
15:23 46.6 °F 44.1 °F 29.89 in Calm     91% 0.09 in 21.00 W/m2
15:28 46.6 °F 44.1 °F 29.89 in Calm     91% 0.26 in 19.00 W/m2
15:33 46.5 °F 44.0 °F 29.88 in Calm     91% 0.12 in 16.00 W/m2
15:38 46.5 °F 44.0 °F 29.88 in Calm     91% 0.12 in 11.00 W/m2
15:43 46.5 °F 44.0 °F 29.88 in Calm     91% 0.23 in 18.00 W/m2
15:48 46.5 °F 44.0 °F 29.88 in Calm     91% 0.17 in 14.00 W/m2
15:53 46.6 °F 44.1 °F 29.89 in Calm     91% 0.16 in 12.00 W/m2
15:58 46.5 °F 44.0 °F 29.88 in Calm     91% 0.20 in 12.00 W/m2
16:03 46.5 °F 44.0 °F 29.89 in Calm     91% 0.13 in 12.00 W/m2
16:08 46.5 °F 44.0 °F 29.89 in Calm     91% 0.08 in 9.00 W/m2
16:13 46.5 °F 44.0 °F 29.89 in Calm     91% 0.19 in 11.00 W/m2
16:18 46.5 °F 44.0 °F 29.89 in Calm     91% 0.21 in 7.00 W/m2
16:23 46.4 °F 43.9 °F 29.90 in Calm   1.0 mph 91% 0.24 in 5.00 W/m2
16:28 46.4 °F 43.9 °F 29.90 in Calm   1.0 mph 91% 0.42 in 5.00 W/m2
16:33 46.3 °F 43.8 °F 29.90 in SW 10.0 mph 13.0 mph 91% 0.21 in 5.00 W/m2
16:38 46.3 °F 43.8 °F 29.90 in Calm   1.0 mph 91% 0.14 in 0.00 W/m2
16:43 46.3 °F 43.8 °F 29.91 in West 3.0 mph 9.0 mph 91% 0.20 in 0.00 W/m2
16:48 46.3 °F 43.8 °F 29.91 in Calm   1.0 mph 91% 0.12 in 0.00 W/m2
16:53 46.2 °F 43.7 °F 29.90 in Calm   1.0 mph 91% 0.30 in 0.00 W/m2
16:58 46.1 °F 43.6 °F 29.90 in Calm     91% 0.19 in 0.00 W/m2
17:03 46.1 °F 43.6 °F 29.91 in Calm     91% 0.12 in 0.00 W/m2
17:08 46.1 °F 43.6 °F 29.90 in Calm     91% 0.16 in 0.00 W/m2
17:13 46.1 °F 43.6 °F 29.91 in Calm     91% 0.12 in 0.00 W/m2
17:18 46.0 °F 43.5 °F 29.91 in SSW 3.0 mph 13.0 mph 91% 0.17 in 0.00 W/m2
17:23 46.0 °F 43.5 °F 29.90 in Calm   5.0 mph 91% 0.23 in 0.00 W/m2
17:28 46.0 °F 43.5 °F 29.91 in Calm   1.0 mph 91% 0.10 in 0.00 W/m2
17:33 46.0 °F 43.5 °F 29.91 in Calm   1.0 mph 91% 0.16 in 0.00 W/m2
17:38 45.9 °F 43.4 °F 29.91 in Calm     91% 0.25 in 0.00 W/m2
17:43 45.9 °F 43.4 °F 29.91 in Calm   1.0 mph 91% 0.10 in 0.00 W/m2
17:48 45.9 °F 43.4 °F 29.91 in Calm     91% 0.17 in 0.00 W/m2
17:53 45.8 °F 43.3 °F 29.91 in Calm   1.0 mph 91% 0.07 in 0.00 W/m2
17:58 45.8 °F 43.3 °F 29.92 in Calm     91% 0.19 in 0.00 W/m2
18:03 45.8 °F 43.3 °F 29.92 in Calm   1.0 mph 91% 0.14 in 0.00 W/m2
18:08 45.7 °F 43.2 °F 29.92 in Calm   1.0 mph 91% 0.09 in 0.00 W/m2
18:13 45.7 °F 43.2 °F 29.92 in Calm     91% 0.05 in 0.00 W/m2
18:18 45.6 °F 43.1 °F 29.92 in Calm   1.0 mph 91% 0.05 in 0.00 W/m2
18:23 45.6 °F 43.1 °F 29.92 in Calm     91% 0.05 in 0.00 W/m2
18:28 45.6 °F 43.1 °F 29.93 in Calm     91% 0.04 in 0.00 W/m2
18:33 45.5 °F 43.0 °F 29.93 in Calm     91% 0.00 in 0.00 W/m2
18:38 45.5 °F 43.0 °F 29.93 in Calm     91% 0.00 in 0.00 W/m2
18:43 45.5 °F 43.0 °F 29.93 in Calm     91% 0.00 in 0.00 W/m2
18:48 45.5 °F 43.0 °F 29.93 in Calm     91% 0.00 in 0.00 W/m2
18:54 45.5 °F 43.0 °F 29.93 in Calm     91% 0.00 in 0.00 W/m2
18:59 45.5 °F 43.0 °F 29.93 in Calm     91% 0.00 in 0.00 W/m2
19:04 45.4 °F 42.9 °F 29.93 in Calm     91% 0.00 in 0.00 W/m2
19:09 45.5 °F 43.0 °F 29.93 in Calm     91% 0.00 in 0.00 W/m2
19:20 45.4 °F 42.9 °F 29.93 in Calm     91% 0.00 in 0.00 W/m2
19:23 45.4 °F 42.9 °F 29.93 in Calm   1.0 mph 91% 0.00 in 0.00 W/m2
19:25 45.4 °F 42.9 °F 29.92 in Calm   1.0 mph 91% 0.00 in 0.00 W/m2
19:26 45.4 °F 42.9 °F 29.92 in Calm   1.0 mph 91% 0.00 in 0.00 W/m2
19:28 45.4 °F 42.9 °F 29.93 in Calm   1.0 mph 91% 0.00 in 0.00 W/m2
19:33 45.4 °F 42.9 °F 29.93 in Calm     91% 0.00 in 0.00 W/m2
19:38 45.3 °F 42.8 °F 29.93 in Calm   1.0 mph 91% 0.00 in 0.00 W/m2
19:43 45.3 °F 42.8 °F 29.93 in Calm     91% 0.00 in 0.00 W/m2
19:48 45.3 °F 42.8 °F 29.93 in Calm     91% 0.00 in 0.00 W/m2
19:53 45.3 °F 42.8 °F 29.93 in Calm     91% 0.00 in 0.00 W/m2
19:58 45.2 °F 42.7 °F 29.93 in Calm     91% 0.00 in 0.00 W/m2
20:03 45.2 °F 42.7 °F 29.93 in Calm     91% 0.00 in 0.00 W/m2
20:08 45.3 °F 42.8 °F 29.93 in Calm     91% 0.00 in 0.00 W/m2
20:13 45.2 °F 42.7 °F 29.93 in Calm     91% 0.00 in 0.00 W/m2
20:18 45.2 °F 42.7 °F 29.93 in Calm     91% 0.00 in 0.00 W/m2
20:23 45.2 °F 42.7 °F 29.93 in Calm     91% 0.00 in 0.00 W/m2
20:28 45.2 °F 42.7 °F 29.93 in Calm     91% 0.00 in 0.00 W/m2
20:33 45.2 °F 42.7 °F 29.94 in Calm     91% 0.00 in 0.00 W/m2
20:38 45.2 °F 42.7 °F 29.94 in Calm     91% 0.00 in 0.00 W/m2
20:43 45.2 °F 42.7 °F 29.94 in Calm     91% 0.00 in 0.00 W/m2
20:48 45.2 °F 42.7 °F 29.94 in Calm     91% 0.00 in 0.00 W/m2
20:58 45.2 °F 42.7 °F 29.94 in Calm     91% 0.00 in 0.00 W/m2
21:03 45.2 °F 42.7 °F 29.94 in Calm     91% 0.00 in 0.00 W/m2
21:08 45.2 °F 42.7 °F 29.94 in Calm     91% 0.00 in 0.00 W/m2
21:13 45.2 °F 42.7 °F 29.94 in Calm     91% 0.00 in 0.00 W/m2
21:18 45.2 °F 42.7 °F 29.94 in Calm     91% 0.00 in 0.00 W/m2
21:23 45.2 °F 42.7 °F 29.94 in Calm     91% 0.00 in 0.00 W/m2
21:28 45.2 °F 42.7 °F 29.94 in Calm     91% 0.00 in 0.00 W/m2
21:38 45.2 °F 42.7 °F 29.94 in Calm     91% 0.00 in 0.00 W/m2
21:43 45.2 °F 42.7 °F 29.94 in Calm     91% 0.00 in 0.00 W/m2
21:48 45.2 °F 42.7 °F 29.95 in Calm     91% 0.00 in 0.00 W/m2
21:53 45.2 °F 42.7 °F 29.95 in Calm     91% 0.00 in 0.00 W/m2
21:58 45.1 °F 42.6 °F 29.94 in Calm     91% 0.00 in 0.00 W/m2
22:03 45.1 °F 42.6 °F 29.95 in Calm     91% 0.00 in 0.00 W/m2
22:08 45.2 °F 42.7 °F 29.95 in Calm     91% 0.00 in 0.00 W/m2
22:13 45.2 °F 42.7 °F 29.95 in Calm     91% 0.00 in 0.00 W/m2
22:18 45.2 °F 42.7 °F 29.95 in Calm     91% 0.00 in 0.00 W/m2
22:23 45.1 °F 42.6 °F 29.95 in Calm     91% 0.00 in 0.00 W/m2
22:28 45.1 °F 42.6 °F 29.95 in Calm     91% 0.00 in 0.00 W/m2
22:33 45.1 °F 42.6 °F 29.96 in Calm     91% 0.00 in 0.00 W/m2
22:38 45.1 °F 42.6 °F 29.96 in Calm     91% 0.00 in 0.00 W/m2
22:43 45.2 °F 42.7 °F 29.96 in Calm     91% 0.00 in 0.00 W/m2
22:48 45.1 °F 42.6 °F 29.95 in Calm     91% 0.00 in 0.00 W/m2
22:53 45.1 °F 42.6 °F 29.95 in Calm     91% 0.08 in 0.00 W/m2
23:03 45.1 °F 42.6 °F 29.96 in Calm     91% 0.05 in 0.00 W/m2
23:09 45.1 °F 42.6 °F 29.96 in Calm     91% 0.04 in 0.00 W/m2
23:19 45.1 °F 42.6 °F 29.96 in Calm     91% 0.06 in 0.00 W/m2
23:24 45.1 °F 42.6 °F 29.96 in Calm     91% 0.06 in 0.00 W/m2
23:29 45.1 °F 42.6 °F 29.96 in Calm     91% 0.05 in 0.00 W/m2
23:34 45.1 °F 42.6 °F 29.96 in Calm     91% 0.00 in 0.00 W/m2
23:39 45.1 °F 42.6 °F 29.96 in Calm     91% 0.00 in 0.00 W/m2
23:44 45.1 °F 42.6 °F 29.96 in Calm     91% 0.00 in 0.00 W/m2
23:49 45.1 °F 42.6 °F 29.96 in Calm     91% 0.00 in 0.00 W/m2
23:54 45.1 °F 42.6 °F 29.96 in Calm     91% 0.00 in 0.00 W/m2
23:59 45.1 °F 42.6 °F 29.97 in Calm     91% 0.00 in 0.00 W/m2
Foresthill Weather
 WU-history PHP script courtesy of   Juneau County Weather.
powered by Cumulus v1.9.3 (1059)
Ambient Weather VWS v14.00
Top Contact Website Map Copyright © 2007 - 2018 Foresthillweather.com Never base important decisions on this or any weather information obtained from the Internet